AirNav   Air Wisconsin pilot careers
 
 1033 users online  

43K Marion Municipal Airport
Marion, Kansas, USA

GOING TO MARION?


FAA INFORMATION EFFECTIVE 24 MAY 2018

Location

FAA Identifier: 43K
Lat/Long: 38-20-15.4000N / 096-59-17.7000W
38-20.256667N / 096-59.295000W
38.3376111 / -96.9882500
(estimated)
Elevation: 1390 ft. / 424 m (estimated)
Variation: 07E (1985)
From city: 2 miles SE of MARION, KS
Time zone: UTC -5 (UTC -6 during Standard Time)
Zip code: 66861

Airport Operations

Airport use: Open to the public
Activation date: 12/1945
Control tower: no
ARTCC: KANSAS CITY CENTER
FSS: WICHITA FLIGHT SERVICE STATION
NOTAMs facility: ICT (NOTAM-D service available)
Attendance: UNATNDD
PHONE AVBL 24 HRS.
Wind indicator: yes
Segmented circle: no
Beacon: white-green (lighted land airport)
Operates sunset to sunrise.

Airport Communications

CTAF: 122.9

Nearby radio navigation aids

VOR radial/distance  VOR name  Freq  Var
FRIr183/(38.4)FORT RILEY VOR109.4006E

 
NDB name  Hdg/Dist  Freq  Var  ID
NEWTON033/21.228106EEWK . .-- -.-
HERINGTON195/22.940706EHRU .... .-. ..-

Airport Services

Fuel available: 100LL MOGAS
Parking: hangars and tiedowns
Airframe service: NONE
Powerplant service: NONE
Bottled oxygen: NONE
Bulk oxygen: NONE

Runway Information

Runway 17/35

Dimensions: 2573 x 40 ft. / 784 x 12 m
Surface: asphalt, in good condition
Runway edge lights: low intensity
Runway edge markings: RWY 35 ALIGNMENT NUMBERS FADED.
RUNWAY 17  RUNWAY 35
Latitude: 38-20.455545N38-20.031528N
Longitude: 096-59.227317W096-59.227317W
Elevation: 1382.0 ft.1378.0 ft.
Traffic pattern: leftleft
Runway heading: 173 magnetic, 180 true353 magnetic, 000 true
Markings: numbers only, in good conditionnumbers only, in good condition

Runway 3/21

Dimensions: 2745 x 95 ft. / 837 x 29 m
Surface: turf, in good condition
RY 03/21 IS SLIGHTLY ROUGH.
Runway edge markings: 03/21 THLDS & EDGES MKD WITH YELLOW PAINTED TIRES.
RUNWAY 3  RUNWAY 21
Traffic pattern: leftleft
Obstructions: 4 ft. fence
THE PROXIMITY OF THE FENCE TO THE RWY ESTABLISHES THE CONTROLLING OBSTRUCTION. THE 35' TO 40' TREES DIRECTLY BEHIND WOULD BE MORE OF A CONCERN FOR APPROACHING AIRCRAFT.
22 ft. pline, 735 ft. from runway, 170 ft. left of centerline, 33:1 slope to clear

Runway 13/31

Dimensions: 2722 x 50 ft. / 830 x 15 m
Surface: turf, in good condition
Runway edge markings: 13/31 THLD & EDGES MKD WITH YELLOW PAINTED TIRES.
RUNWAY 13  RUNWAY 31
Traffic pattern: leftleft
Obstructions: 14 ft. treesnone

Runway 18/36

Dimensions: 2310 x 67 ft. / 704 x 20 m
Surface: turf, in good condition
Runway edge markings: RY 18/36 THLD DELINEATED WITH YELLOW PAINTED TIRES.
RUNWAY 18  RUNWAY 36
Latitude: 38-20.459450N38-20.079648N
Longitude: 096-59.352258W096-59.385003W
Elevation: 1380.0 ft.1378.0 ft.
Traffic pattern: leftleft
Runway heading: 177 magnetic, 184 true357 magnetic, 004 true
Obstructions: 4 ft. fence, 9 ft. from runway, 30 ft. left and right of centerline, 2:1 slope to clearnone

Airport Ownership and Management from official FAA records

Ownership: Publicly-owned
Owner: CITY OF MARION
208 EAST SANTA FE
MARION, KS 66861
Phone 620-382-3703
Manager: DOUG KJELLIN
208 EAST SANTA FE
MARION, KS 66861
Phone 620-382-3703
MR.MAYFIELD IS CITY MGR. OF MARION KS.

Airport Operational Statistics

Aircraft based on the field: 17
Single engine airplanes: 16
Ultralights: 1
    
Aircraft operations: avg 25/day *
66% local general aviation
33% transient general aviation
<1% military
* for 12-month period ending 29 September 2016

Additional Remarks

A58-35 RWY 35 ROAD ABANDONED & IS GATED FM TRAFFIC. +4 FT FENCE; 70 FT FRM END OF RWY; BOTH SIDES OF RWY.
A58-17 +4' FENCE 5' FROM RWY END 30' L & R OF CNTRLEN; LOWERED AT RWY.

Instrument Procedures

There are no published instrument procedures at 43K.

Some nearby airports with instrument procedures:

KEWK - Newton City/County Airport (22 nm SW)
KHRU - Herington Regional Airport (23 nm N)
47K - Moundridge Municipal Airport (25 nm W)
KMPR - Mc Pherson Airport (33 nm W)
1K1 - Lloyd Stearman Field Airport (34 nm S)
 
Loc | Ops | Rwys | IFR | FBO | Links
Com | Nav | Svcs | Stats | Notes

Kansas City Aviation Department
 
Area around 43K (Marion Municipal Airport)
 
Road maps at: MapQuest Bing Google
 
Aerial photo
WARNING: Photo may not be current or correct
Aerial photo of 43K (Marion Municipal Airport)
Photo by Paul Hodson
Photo taken 21-Jan-2006
taken from a C182 from the northwest

Do you have a better or more recent aerial photo of Marion Municipal Airport that you would like to share? If so, please send us your photo.

 
Sectional chart

 
Airport distance calculator
Flying to Marion Municipal Airport? Find the distance to fly.

From to 43K

Sunrise and sunset
Times for 19-Jun-2018
 Local
(UTC-5)
 Zulu
(UTC)
Morning civil twilight05:3310:33
Sunrise06:0511:05
Sunset20:5301:53
Evening civil twilight21:2502:25

Current date and time
Zulu (UTC)  20-Jun-2018 00:27:54
Local (UTC-5)  19-Jun-2018 19:27:54
 
METAR
KEWK 
22nm SW 
192356Z AUTO 16020G23KT 10SM FEW045 30/19 A2986 RMK AO2 SLP093 T03000194 10333 20300 56018
K1K1 
34nm S 
200015Z AUTO 19015G23KT 10SM CLR 29/19 A2986 RMK AO2 T02880191
KEQA 
35nm S 
200015Z AUTO 16016G25KT 10SM CLR 29/20 A2985 RMK AO2
KAAO 
37nm S 
192354Z AUTO 16016G23KT 10SM CLR 29/20 A2986 RMK AO2 PK WND 13027/2307 SLP097 T02890200 10322 20289 55016
KEMP 
37nm E 
192353Z AUTO 16017G28KT 10SM CLR 29/20 A2983 RMK AO2 PK WND 17031/2321 SLP089 T02890200 10322 20289 58039
KBEC 
40nm S 
200015Z AUTO 18014G21KT 10SM SCT040 29/19 A2987 RMK AO2 T02870190
K3AU 
40nm S 
200015Z AUTO 17016G24KT 10SM SCT039 28/19 A2987 RMK AO2
KSLN 
41nm NW 
192353Z 19018G27KT 10SM CLR 33/20 A2977 RMK AO2 PK WND 19027/2344 SLP064 T03280200 10356 20306 58027
KFRI 
43nm N 
192356Z AUTO 17015G24KT 10SM CLR 31/21 A2980 RMK AO2 SLP078 T03130205 10314 20255 57027
KHUT 
44nm W 
192352Z 17018G26KT 10SM BKN065 32/19 A2983 RMK AO2 PK WND 15026/2256 SLP077 T03170189 10350 20306 55014
TAF
KSLN 
41nm NW 
191740Z 1918/2018 18010G20KT P6SM SCT035 FM191900 18010G20KT P6SM BKN040 FM192200 17010G20KT P6SM VCTS BKN040CB FM200500 14010KT P6SM -SHRA VCTS BKN040CB FM200700 25010KT P6SM BKN050
KFRI 
43nm N 
200000Z 2000/2106 17010G15KT 9999 SCT070 QNH2979INS TEMPO 2005/2014 21025G35KT 6000 TSRA OVC020CB BECMG 2015/2016 VRB06KT 9999 SCT080 QNH2982INS TX31/2000Z TN18/2012Z
KHUT 
44nm W 
191840Z 1919/2018 17017KT P6SM BKN050 FM200500 17013KT P6SM VCTS BKN035CB FM200800 19007KT 5SM TSRA OVC017CB FM201100 28009KT 4SM TSRA SCT015 OVC035CB TEMPO 2011/2014 2SM +TSRA OVC013CB
KIAB 
45nm S 
191800Z 1918/2100 19012G18KT 9999 FEW035 SCT070 QNH2982INS BECMG 1923/1924 18009KT 9999 SCT070 QNH2982INS BECMG 2005/2006 20009KT 8000 -SHRA BKN020 QNH2985INS TEMPO 2007/2014 20020G30KT 6000 -TSRA OVC012CB BECMG 2015/2016 32012G20KT 9999 NSW SCT080 QNH2985INS TX33/1920Z TN19/2012Z
KICT 
46nm SW 
191740Z 1918/2018 18010G20KT P6SM SCT030 FM201000 21010KT P6SM VCTS BKN040CB FM201600 25010KT P6SM BKN040
KMHK 
50nm N 
191720Z 1918/2018 18009KT P6SM BKN080 FM200800 18006KT P6SM SHRA VCTS BKN050CB FM201400 24007KT P6SM VCTS SCT020 BKN040CB
NOTAMs
Click for the latest NOTAMs
NOTAMs are issued by the DoD/FAA and will open in a separate window not controlled by AirNav.

 

 
 

Would you like to see your business listed on this page?

 If your business provides an interesting product or service to pilots, flight crews, aircraft, or users of the Marion Municipal Airport, you should consider listing it here.  To start the listing process, click on the button below
 
Add a business
 

Other Pages about Marion Municipal Airport

Update a link
 
Copyright © AirNav, LLC. All rights reserved. Privacy Policy  Contact